User: anonymous   Login
Location: Caltech
(34.1382°N, 118.1253°W)
Time: 19:11:33
(UTC-08:00)
Language:

Iridium 21 - Orbit

View from above orbital plane
View from above orbital plane
View from above satellite
View from above satellite

Ground track
Ground track

The orbit data is extracted from the following two-line orbital elements,

1 25778U 99032B   18051.28506697  .00000152  00000-0  47132-4 0  9999
2 25778  86.3964 120.3258 0002242  93.4807 266.6645 14.34220572983677
Epoch (UTC): 20 February 2018 06:50:29
Eccentricity: 0.0002242
inclination: 86.3964°
perigee height: 776 km
apogee height: 779 km
right ascension of ascending node: 120.3258°
argument of perigee: 93.4807°
revolutions per day: 14.34220572
mean anomaly at epoch: 266.6645°
orbit number at epoch: 98367

The dashed part of the orbit path shows where the satellite is in the earth's shadow,  

DLR